Regional Weather Roundup
Issued by NWS

Home | Current Version | Previous Version | Text Only | Print | Product List | Glossary Off
Versions: 1 2 3 4 5 6 7 8 9 10 11 12 13 14 15 16 17 18 19 20 21 22 23 24 25 26 27 28 29 30 31 32 33 34 35 36 37 38 39 40 41 42 43 44 45 46 47 48 49 50

000
ASUS45 KABQ 250810
RWRNM
NEW MEXICO REGIONAL WEATHER ROUNDUP
NATIONAL WEATHER SERVICE ALBUQUERQUE NM
200 AM MDT TUE APR 25 2017

NOTE: "FAIR" MEANS FEW OR NO CLOUDS BELOW 12,000 FEET AGL WITH NO
       SIGNIFICANT WEATHER OR OBSTRUCTIONS TO VISION.

      THIS PRODUCT IS RELEASED AS TWO VERSIONS.  ONE VERSION NEAR
      THE TOP OF THE HOUR CONTAINING PRELIMINARY DATA FROM ALBUQUERQUE
      AND OTHER STATIONS.  A FINAL VERSION WITH ADDITIONAL DATA IS
      ISSUED ABOUT 10 MINUTES AFTER THE HOUR.

NMZ501-503-504-510>518-250900-
NORTHWEST PLATEAU/NORTHCENTRAL MOUNTAINS

CITY           SKY/WX    TMP DP  RH WIND       PRES   REMARKS
FARMINGTON     FAIR      58  24  27 W15       29.64F
LOS ALAMOS     CLOUDY    55  19  25 SW9G23    29.75F
SANTA FE       CLOUDY    57  24  28 W8        29.72S
TAOS             N/A     52  21  30 SW9       29.73F
ANGEL FIRE     FAIR      47  22  37 SW29G49   29.72S

$$
NMZ402-403-502-505>509-250900-
WESTCENTRAL MOUNTAINS/SOUTHWEST MOUNTAINS

CITY           SKY/WX    TMP DP  RH WIND       PRES   REMARKS
GALLUP         MOCLDY    55  16  21 SW22G30   29.76F
GRANTS         CLOUDY    56  15  20 W9G18     29.78F
SILVER CITY    FAIR      59  20  21 NW13      29.81S

$$
NMZ407-409-411-412-250900-
SOUTHERN DESERTS

CITY           SKY/WX    TMP DP  RH WIND       PRES   REMARKS
DEMING         FAIR      68  21  16 W12       29.76S
LAS CRUCES     FAIR      67  17  15 S12       29.76F
HOLLOMAN AFB   FAIR      74  17  11 W24G33    29.72F
ALAMOGORDO     FAIR      73  16  11 W12G21    29.74F
T OR C         FAIR      69  18  14 SW12      29.71F

$$
NMZ519>523-250900-
CENTRAL VALLEYS/CENTRAL HIGHLANDS

CITY           SKY/WX    TMP DP  RH WIND       PRES   REMARKS
ALBUQUERQUE    MOCLDY    64  21  19 SW9       29.73S
MORIARTY ARPT  CLOUDY    63  21  20 NW12G17   29.74F
CLINES CORNERS FAIR      55  19  24 W37G48    29.71F
BELEN          CLOUDY    60  19  20 W8        29.73F
SOCORRO        FAIR      67  16  14 W10G18    29.71F

$$
NMZ524>526-539-540-250900-
SOUTHCENTRAL MOUNTAINS

CITY           SKY/WX    TMP DP  RH WIND       PRES   REMARKS
RUIDOSO        FAIR      59  14  17 W8        29.76F

$$
NMZ527>531-250900-
NORTHEAST HIGHLANDS/NORTHEAST PLAINS

CITY           SKY/WX    TMP DP  RH WIND       PRES   REMARKS
LAS VEGAS      FAIR      55  22  27 W15G23    29.66S
RATON          FAIR      52  23  32 SW14      29.58F
CLAYTON        FAIR      54  29  38 W14       29.50F

$$
NMZ532>537-250900-
EASTCENTRAL PLAINS

CITY           SKY/WX    TMP DP  RH WIND       PRES   REMARKS
SANTA ROSA     FAIR      66  20  17 W12G23    29.60F
TUCUMCARI      FAIR      69  20  15 W17       29.50S
CANNON AFB     FAIR      65  18  16 W15       29.57F
CLOVIS AIRPORT FAIR      66  19  16 W18       29.57F

$$
NMZ028-029-538-250900-
SOUTHEAST PLAINS

CITY           SKY/WX    TMP DP  RH WIND       PRES   REMARKS
ROSWELL        FAIR      75  20  12 SW20        N/A
ARTESIA        FAIR      73  23  15 SW17      29.60F
CARLSBAD       NOT AVBL
HOBBS          FAIR      59  19  21 SE7       29.61F


$$



USA.gov is the U.S. government's official web portal to all federal, state and local government web resources and services.